Tracking 18840 objects as of 19-November-2017
HD Live streaming from Space Station
objects crossing your sky now

TYVAK 53B

Track TYVAK 53B now!
10-day predictions


NORAD ID: 42795
Int'l Code: 2017-036AG
Perigee: 505.1 km
Apogee: 512.7 km
Inclination: 97.4 °
Period: 94.7 minutes
Semi major axis: 6879 km
RCS: Unknown
Launch date: June 23, 2017
Source: United States (US)
Launch site: SRIHARIKOTA (SRI)
aabbcc
Your satellite tracking list
Your tracking list is empty




NASA's NSSDC Master Catalog

Two Line Element Set (TLE):
1 42795U 17036AG  17323.24405937  .00003705  00000-0  16839-3 0  9999
2 42795  97.4134  21.1229 0005520 234.0455 126.0269 15.21360203 22596
Source of the keplerian elements: AFSPC